Weather History for KY19 - April, 2013

Change the Weather History Date:

Wednesday, April 3, 2013

  Actual Average (KBIS) Record (KBIS)
Temperature  
Mean Temperature 45 °F 38 °F  
Max Temperature 66 °F 51 °F 82 °F (1921)
Min Temperature 24 °F 26 °F -7 °F (1975)
Degree Days  
Heating Degree Days 20 27  
Month to date heating degree days 82  
Since 1 July heating degree days 7601  
Cooling Degree Days 0 0  
Month to date cooling degree days 0  
Year to date cooling degree days 0  
Moisture  
Dew Point 28 °F    
Average Humidity 69    
Maximum Humidity 100    
Minimum Humidity 28    
Precipitation  
Precipitation 0.00 in 0.03 in 0.60 in (1946)
Month to date precipitation 0.10  
Year to date precipitation 1.91  
Snow  
Snow 0.00 in 0.20 in 11.90 in (1937)
Month to date snowfall 0.7  
Since 1 July snowfall 47.3  
Snow Depth -    
Sea Level Pressure  
Sea Level Pressure 30.00 in    
Wind  
Wind Speed 17 mph (SW)    
Max Wind Speed 31 mph    
Max Gust Speed 38 mph    
Visibility 10 miles    
Events      
T = Trace of Precipitation, MM = Missing Value Source: NWS Daily Summary

Daily Weather History Graph

Daily Weather History Graph

Search for Another Location

Airport or City:

Trip Planner

Search our weather history database for the weather conditions in past years. The results will help you decide how hot, cold, wet, or windy it might be!

Date:

Astronomy

Apr. 03, 2013 Rise Set
Actual Time 7:18 AM CDT 8:15 PM CDT
Civil Twilight 6:47 AM CDT 8:46 PM CDT
Nautical Twilight 6:10 AM CDT 9:23 PM CDT
Astronomical Twilight 5:32 AM CDT 10:02 PM CDT
Moon 3:24 AM CDT (4/3) 1:07 PM CDT (4/3)
Length of Visible Light 13h 59m
Length of Day
12h 57m
Last Quarter, 44% of the Moon is Illuminated
Apr 3
Last Quarter
Apr 10
New
Apr 18
First Quarter
Apr 25
Full
May 2
Last Quarter

Hourly Weather History & Observations

Time (CDT) Temp. Windchill Dew Point Humidity Pressure Visibility Wind Dir Wind Speed Gust Speed Precip Events Conditions
12:15 AM 26.6 °F 14.7 °F 21.2 °F 80% 30.16 in 10.0 mi SSE 15.0 mph - N/A   Clear
12:35 AM 26.6 °F 13.8 °F 23.0 °F 86% 30.15 in 10.0 mi SSE 17.3 mph - N/A   Clear
12:55 AM 26.6 °F 13.8 °F 23.0 °F 86% 30.14 in 10.0 mi SSE 17.3 mph - N/A   Clear
1:15 AM 26.6 °F 14.3 °F 23.0 °F 86% 30.13 in 10.0 mi SSE 16.1 mph - N/A   Clear
1:35 AM 24.8 °F 14.0 °F 23.0 °F 93% 30.13 in 10.0 mi SSE 11.5 mph - N/A   Clear
1:55 AM 26.6 °F 13.8 °F 24.8 °F 93% 30.12 in 10.0 mi SSE 17.3 mph 24.2 mph N/A   Clear
2:15 AM 26.6 °F 13.1 °F 24.8 °F 93% 30.11 in 10.0 mi South 19.6 mph 24.2 mph N/A   Clear
2:35 AM 26.6 °F 14.7 °F 24.8 °F 93% 30.11 in 10.0 mi South 15.0 mph - N/A   Clear
2:55 AM 26.6 °F 14.7 °F 24.8 °F 93% 30.11 in 10.0 mi South 15.0 mph 19.6 mph N/A   Clear
3:15 AM 26.6 °F 14.3 °F 24.8 °F 93% 30.10 in 10.0 mi SSE 16.1 mph - N/A   Clear
3:35 AM 24.8 °F 11.9 °F 24.8 °F 100% 30.08 in 10.0 mi SSE 16.1 mph 20.7 mph N/A   Clear
3:55 AM 26.6 °F 13.4 °F 26.6 °F 100% 30.07 in 10.0 mi South 18.4 mph - N/A   Clear
4:15 AM 26.6 °F 13.1 °F 26.6 °F 100% 30.06 in 10.0 mi South 19.6 mph 26.5 mph N/A   Clear
4:35 AM 26.6 °F 13.8 °F 26.6 °F 100% 30.05 in 10.0 mi South 17.3 mph - N/A   Clear
4:55 AM 26.6 °F 15.7 °F 26.6 °F 100% 30.05 in 10.0 mi South 12.7 mph - N/A   Clear
5:15 AM 26.6 °F 15.7 °F 26.6 °F 100% 30.05 in 10.0 mi South 12.7 mph - N/A   Clear
5:35 AM 26.6 °F 14.3 °F 26.6 °F 100% 30.03 in 10.0 mi SSE 16.1 mph - N/A   Clear
5:55 AM 26.6 °F 15.2 °F 26.6 °F 100% 30.03 in 10.0 mi South 13.8 mph 19.6 mph N/A   Clear
6:15 AM 26.6 °F 15.2 °F 26.6 °F 100% 30.02 in 10.0 mi South 13.8 mph 18.4 mph N/A   Clear
6:35 AM 26.6 °F 14.3 °F 26.6 °F 100% 30.02 in 10.0 mi South 16.1 mph 21.9 mph N/A   Clear
6:55 AM 26.6 °F 14.3 °F 26.6 °F 100% 30.01 in 10.0 mi South 16.1 mph - N/A   Clear
7:15 AM 26.6 °F 14.3 °F 26.6 °F 100% 30.00 in 10.0 mi South 16.1 mph - N/A   Clear
7:35 AM 28.4 °F 17.5 °F 26.6 °F 93% 30.00 in 10.0 mi South 13.8 mph - N/A   Clear
7:55 AM 28.4 °F 17.5 °F 26.6 °F 93% 30.00 in 10.0 mi South 13.8 mph - N/A   Clear
8:15 AM 30.2 °F 18.5 °F 26.6 °F 86% 29.98 in 10.0 mi South 17.3 mph 21.9 mph N/A   Clear
8:35 AM 32.0 °F 21.6 °F 26.6 °F 80% 29.98 in 10.0 mi South 15.0 mph - N/A   Clear
8:55 AM 32.0 °F 20.1 °F 26.6 °F 80% 29.96 in 10.0 mi South 19.6 mph 23.0 mph N/A   Clear
9:15 AM 32.0 °F 20.1 °F 26.6 °F 80% 29.95 in 10.0 mi South 19.6 mph 24.2 mph N/A   Clear
9:35 AM 35.6 °F 24.8 °F 28.4 °F 75% 29.94 in 10.0 mi South 19.6 mph 26.5 mph N/A   Clear
9:55 AM 35.6 °F 24.8 °F 28.4 °F 75% 29.93 in 10.0 mi South 19.6 mph - N/A   Clear
10:15 AM 37.4 °F 27.5 °F 28.4 °F 70% 29.91 in 10.0 mi SSE 18.4 mph 28.8 mph N/A   Clear
10:35 AM 41.0 °F 33.1 °F 28.4 °F 61% 29.92 in 10.0 mi South 15.0 mph - N/A   Clear
10:55 AM 42.8 °F 35.4 °F 30.2 °F 61% 29.92 in 10.0 mi South 15.0 mph 20.7 mph N/A   Clear
11:15 AM 44.6 °F 36.9 °F 32.0 °F 61% 29.90 in 10.0 mi South 18.4 mph 27.6 mph N/A   Partly Cloudy
11:35 AM 46.4 °F 39.5 °F 32.0 °F 57% 29.91 in 10.0 mi SSW 17.3 mph 29.9 mph N/A   Partly Cloudy
11:55 AM 48.2 °F - 32.0 °F 54% 29.90 in 10.0 mi SSW 17.3 mph 24.2 mph N/A   Partly Cloudy
12:15 PM 50.0 °F - 30.2 °F 47% 29.90 in 10.0 mi SSW 15.0 mph 21.9 mph N/A   Mostly Cloudy
12:35 PM 50.0 °F - 30.2 °F 47% 29.90 in 10.0 mi SSW 13.8 mph 21.9 mph N/A   Mostly Cloudy
12:55 PM 53.6 °F - 30.2 °F 41% 29.90 in 10.0 mi SW 15.0 mph 20.7 mph N/A   Scattered Clouds
1:15 PM 55.4 °F - 30.2 °F 38% 29.88 in 10.0 mi SW 16.1 mph 26.5 mph N/A   Mostly Cloudy
1:35 PM 57.2 °F - 30.2 °F 36% 29.87 in 10.0 mi SW 16.1 mph 24.2 mph N/A   Scattered Clouds
1:55 PM 57.2 °F - 28.4 °F 33% 29.86 in 10.0 mi WSW 15.0 mph 25.3 mph N/A   Scattered Clouds
2:15 PM 57.2 °F - 28.4 °F 33% 29.85 in 10.0 mi WSW 17.3 mph 23.0 mph N/A   Mostly Cloudy
2:35 PM 59.0 °F - 30.2 °F 34% 29.85 in 10.0 mi WSW 17.3 mph 24.2 mph N/A   Mostly Cloudy
2:55 PM 62.6 °F - 32.0 °F 32% 29.85 in 10.0 mi West 17.3 mph 24.2 mph N/A   Scattered Clouds
3:15 PM 64.4 °F - 32.0 °F 30% 29.85 in 10.0 mi West 19.6 mph 25.3 mph N/A   Clear
3:35 PM 66.2 °F - 32.0 °F 28% 29.86 in 10.0 mi WNW 17.3 mph 25.3 mph N/A   Clear
3:55 PM 66.2 °F - 33.8 °F 30% 29.86 in 10.0 mi NW 21.9 mph 27.6 mph N/A   Clear
4:15 PM 64.4 °F - 32.0 °F 30% 29.88 in 10.0 mi North 19.6 mph 29.9 mph N/A   Clear
4:35 PM 62.6 °F - 32.0 °F 32% 29.89 in 10.0 mi North 19.6 mph 27.6 mph N/A   Clear
4:55 PM 59.0 °F - 32.0 °F 36% 29.91 in 10.0 mi NNW 24.2 mph 34.5 mph N/A   Clear
5:15 PM 55.4 °F - 33.8 °F 44% 29.93 in 10.0 mi NNW 31.1 mph 34.5 mph N/A   Clear
5:35 PM 51.8 °F - 33.8 °F 50% 29.94 in 10.0 mi NNW 25.3 mph 35.7 mph N/A   Clear
5:55 PM 50.0 °F - 32.0 °F 50% 29.96 in 10.0 mi NNW 29.9 mph 38.0 mph N/A   Clear
6:15 PM 46.4 °F 40.1 °F 32.0 °F 57% 29.98 in 10.0 mi North 15.0 mph 25.3 mph N/A   Partly Cloudy
6:35 PM 46.4 °F 38.3 °F 32.0 °F 57% 29.99 in 10.0 mi North 23.0 mph 28.8 mph N/A   Scattered Clouds
6:55 PM 48.2 °F - 32.0 °F 54% 30.00 in 10.0 mi North 23.0 mph 32.2 mph N/A   Overcast
7:15 PM 46.4 °F 38.5 °F 32.0 °F 57% 30.02 in 10.0 mi North 21.9 mph 28.8 mph N/A   Scattered Clouds
7:35 PM 44.6 °F 36.9 °F 30.2 °F 57% 30.03 in 10.0 mi North 18.4 mph 31.1 mph N/A   Partly Cloudy
7:55 PM 44.6 °F 35.9 °F 32.0 °F 61% 30.05 in 10.0 mi NNW 23.0 mph 27.6 mph N/A   Mostly Cloudy
8:15 PM 41.0 °F 31.9 °F 32.0 °F 70% 30.05 in 10.0 mi NNW 19.6 mph 25.3 mph N/A   Mostly Cloudy
8:35 PM 41.0 °F 31.9 °F 28.4 °F 61% 30.06 in 10.0 mi NNW 19.6 mph 25.3 mph N/A   Mostly Cloudy
8:55 PM 41.0 °F 31.1 °F 26.6 °F 57% 30.07 in 10.0 mi NNW 23.0 mph 29.9 mph N/A   Overcast
9:15 PM 39.2 °F 29.8 °F 26.6 °F 61% 30.09 in 10.0 mi NNW 18.4 mph 27.6 mph N/A   Overcast
9:35 PM 37.4 °F 28.9 °F 24.8 °F 60% 30.11 in 10.0 mi NNW 13.8 mph 21.9 mph N/A   Overcast
9:55 PM 37.4 °F 28.5 °F 24.8 °F 60% 30.11 in 10.0 mi NNW 15.0 mph 19.6 mph N/A   Overcast
10:15 PM 35.6 °F 26.6 °F 24.8 °F 65% 30.11 in 10.0 mi NNW 13.8 mph - N/A   Overcast
10:35 PM 33.8 °F 24.3 °F 24.8 °F 70% 30.12 in 10.0 mi NNW 13.8 mph - N/A   Mostly Cloudy
10:55 PM 33.8 °F 23.9 °F 26.6 °F 75% 30.12 in 10.0 mi NW 15.0 mph - N/A   Partly Cloudy
11:15 PM 33.8 °F 23.5 °F 26.6 °F 75% 30.12 in 10.0 mi NW 16.1 mph 20.7 mph N/A   Clear
11:35 PM 32.0 °F 22.1 °F 26.6 °F 80% 30.12 in 10.0 mi NW 13.8 mph 19.6 mph N/A   Partly Cloudy
11:55 PM 32.0 °F 23.0 °F 24.8 °F 75% 30.12 in 10.0 mi NW 11.5 mph - N/A   Partly Cloudy